Location: Arroyo de San Miguel
(40.9167°N, 4.6667°W)
Time: 01:32:54
(UTC+00:00)

Cosmos 858 Rocket - Pass Details

Date: 19 May 2025
Orbit: 752 x 770 km, 74.1° (Epoch: 24 June)

Event Time Altitude Azimuth Distance (km) Brightness Sun altitude
Rises 20:02:53 0° 341° (NNW) 3,218 8.6 -5.6°
Reaches altitude 10° 20:05:16 10° 343° (NNW) 2,287 7.8 -6.0°
Maximum altitude 20:10:27 79° 70° (ENE) 772 4.5 -6.8°
Drops below altitude 10° 20:15:36 10° 158° (SSE) 2,268 6.4 -7.6°
Enters shadow 20:16:52 - 158° (SSE) 2,766 6.9 -7.8°
